Melton West, Australia

4:46 PM AEDT on October 19, 2017 (GMT +1100)
Melton West

Weather History for 94866 - February, 2014

Change the Weather History Date:

Sunday, February 9, 2014

  Actual Average Record
Temperature  
Mean Temperature 83 °F -  
Max Temperature 104 °F 76 °F - ()
Min Temperature 60 °F 55 °F - ()
Cooling Degree Days 18    
Growing Degree Days 33 (Base 50)    
Moisture  
Dew Point 40 °F    
Average Humidity 23    
Maximum Humidity 64    
Minimum Humidity 4    
Precipitation  
Precipitation 0.00 in 0.05 in - ()
Sea Level Pressure  
Sea Level Pressure 29.84 in    
Wind  
Wind Speed 18 mph ()    
Max Wind Speed 36 mph    
Max Gust Speed 50 mph    
Visibility 12.7 miles    
Events      
T = Trace of Precipitation, MM = Missing Value Source: Averaged Metar Reports

Daily Weather History Graph

Daily Weather History Graph

Search for Another Location

Airport or City:

Trip Planner

Search our weather history database for the weather conditions in past years. The results will help you decide how hot, cold, wet, or windy it might be!

Date:

Astronomy

Feb. 09, 2014 Rise Set
Actual Time 6:43 AM AEDT 8:25 PM AEDT
Civil Twilight 6:15 AM AEDT 8:53 PM AEDT
Nautical Twilight 5:41 AM AEDT 9:27 PM AEDT
Astronomical Twilight 5:04 AM AEDT 10:03 PM AEDT
Moon 4:13 PM AEDT (2/9) 1:40 AM AEDT (2/9)
Length of Visible Light 14h 38m
Length of Day
13h 42m
Waxing Gibbous, 71% of the Moon is Illuminated
Feb 9
Waxing Gibbous
Feb 15
Full
Feb 23
Last Quarter
Mar 1
New
Mar 9
First Quarter

Hourly Weather History & Observations

Time (AEDT) Temp. Heat Index Dew Point Humidity Pressure Visibility Wind Dir Wind Speed Gust Speed Precip Events Conditions
12:00 AM 72 °F - 60 °F 56% 29.75 in 12 mi North 8.1 mph - -   Haze
12:00 AM 73.4 °F - 59.0 °F 61% 29.74 in - North 8.1 mph - N/A   Clear
12:30 AM 71.6 °F - 59.0 °F 64% 29.74 in - North 10.4 mph - N/A   Clear
1:00 AM 71 °F - 59 °F 58% 29.74 in - West 6.9 mph - -  
1:00 AM 71.6 °F - 59.0 °F 64% 29.74 in - West 6.9 mph - N/A   Clear
1:15 AM 78.8 °F - 48.2 °F 34% 29.71 in - North 17.3 mph - N/A   Clear
1:30 AM 87.8 °F - 37.4 °F 17% 29.71 in - North 19.6 mph - N/A   Clear
2:00 AM 87 °F - 37 °F 9% 29.72 in - North 17.3 mph - -  
2:00 AM 86.0 °F - 37.4 °F 18% 29.71 in - North 17.3 mph - N/A   Clear
2:30 AM 86.0 °F - 37.4 °F 18% 29.71 in - North 21.9 mph - N/A   Clear
3:00 AM 86 °F - 37 °F 10% 29.71 in 19 mi North 23.0 mph - -   Partly Cloudy
3:00 AM 86.0 °F - 37.4 °F 18% 29.71 in - North 23.0 mph - N/A   Clear
3:30 AM 86.0 °F - 37.4 °F 18% 29.71 in - North 25.3 mph - N/A   Clear
3:56 AM 86.0 °F - 37.4 °F 18% 29.71 in - North 23.0 mph 35.7 mph N/A   Clear
4:00 AM 85 °F - 37 °F 10% 29.71 in - North 21.9 mph - -  
4:00 AM 86.0 °F - 37.4 °F 18% 29.71 in - North 21.9 mph 35.7 mph N/A   Clear
4:30 AM 86.0 °F - 35.6 °F 17% 29.71 in - North 23.0 mph - N/A   Clear
5:00 AM 86 °F - 35 °F 9% 29.70 in - North 28.8 mph - -  
5:00 AM 86.0 °F - 35.6 °F 17% 29.71 in - North 28.8 mph - N/A   Clear
5:30 AM 84.2 °F - 35.6 °F 18% 29.71 in - North 27.6 mph - N/A   Clear
6:00 AM 85 °F - 35 °F 9% 29.72 in 25 mi North 26.5 mph - -   Partly Cloudy
6:00 AM 84.2 °F - 35.6 °F 18% 29.71 in - North 26.5 mph - N/A   Clear
6:30 AM 84.2 °F - 35.6 °F 18% 29.74 in - North 24.2 mph - N/A   Clear
7:00 AM 84 °F - 36 °F 10% 29.73 in - North 24.2 mph - -  
7:00 AM 84.2 °F - 35.6 °F 18% 29.71 in - North 24.2 mph - N/A   Clear
7:30 AM 84.2 °F - 35.6 °F 18% 29.74 in - North 20.7 mph - N/A   Clear
8:00 AM 87 °F - 35 °F 8% 29.75 in - North 23.0 mph - -  
8:00 AM 87.8 °F - 35.6 °F 16% 29.74 in - North 23.0 mph - N/A   Clear
8:30 AM 87.8 °F - 35.6 °F 16% 29.74 in - North 24.2 mph - N/A   Clear
9:00 AM 89 °F - 34 °F 7% 29.75 in 25 mi North 24.2 mph - -   Partly Cloudy
9:00 AM 89.6 °F - 33.8 °F 14% 29.74 in - North 24.2 mph - N/A   Clear
9:27 AM 89.6 °F - 33.8 °F 14% 29.74 in - North 25.3 mph 36.8 mph N/A   Clear
9:30 AM 91.4 °F - 33.8 °F 13% 29.74 in - North 24.2 mph 36.8 mph N/A   Clear
10:00 AM 96 °F - 31 °F 5% 29.75 in - North 24.2 mph - -  
10:00 AM 96.8 °F - 32.0 °F 10% 29.74 in - North 24.2 mph 40.3 mph N/A   Clear
10:32 AM 98.6 °F - 30.2 °F 9% 29.74 in - NW 23.0 mph 34.5 mph N/A   Clear
11:00 AM 100 °F - 29 °F 4% 29.74 in - NW 28.8 mph - -  
11:00 AM 100.4 °F - 28.4 °F 8% 29.74 in - NW 28.8 mph 44.9 mph N/A   Clear
11:30 AM 102.2 °F - 28.4 °F 7% 29.74 in - NW 26.5 mph 43.7 mph N/A   Clear
12:00 PM 104 °F - 27 °F 4% 29.75 in 19 mi NW 31.1 mph - -   Partly Cloudy
12:00 PM 104.0 °F - 26.6 °F 7% 29.74 in - NW 31.1 mph 49.5 mph N/A   Clear
12:26 PM 93.2 °F - 51.8 °F 24% 29.77 in - WNW 35.7 mph 49.5 mph N/A   Clear
12:28 PM 89.6 °F 87.3 °F 53.6 °F 29% 29.77 in - West 35.7 mph - N/A   Clear
12:30 PM 91.4 °F 89.1 °F 53.6 °F 28% 29.77 in - WSW 33.4 mph 44.9 mph N/A   Clear
1:00 PM 88 °F - 55 °F 23% 29.81 in - SW 26.5 mph - -  
1:00 PM 87.8 °F 86.1 °F 55.4 °F 33% 29.80 in - SW 27.6 mph - N/A   Unknown
1:30 PM 87.8 °F 85.7 °F 53.6 °F 31% 29.83 in - SW 25.3 mph - N/A   Clear
1:42 PM 87.8 °F 85.7 °F 53.6 °F 31% 29.83 in - SSW 23.0 mph 34.5 mph N/A   Clear
2:00 PM 86 °F - 54 °F 23% 29.84 in - SSW 24.2 mph - -  
2:00 PM 86.0 °F 84.2 °F 53.6 °F 33% 29.83 in - SSW 24.2 mph - N/A   Clear
2:30 PM 84.2 °F - 51.8 °F 33% 29.86 in - South 25.3 mph - N/A   Clear
2:45 PM 86.0 °F - 51.8 °F 31% 29.86 in - SSW 23.0 mph 35.7 mph N/A   Clear
3:00 PM 83 °F - 50 °F 22% 29.88 in 16 mi South 23.0 mph - -   Smoke
3:00 PM 84.2 °F - 50.0 °F 30% 29.89 in - South 23.0 mph - N/A   Clear
3:34 PM 86.0 °F - 48.2 °F 27% 29.92 in - South 18.4 mph 29.9 mph N/A   Clear
4:00 PM 85 °F - 46 °F 16% 29.91 in - South 20.7 mph - -  
4:00 PM 84.2 °F - 46.4 °F 27% 29.92 in - South 20.7 mph - N/A   Clear
4:03 PM 84.2 °F - 44.6 °F 25% 29.92 in - South 20.7 mph 32.2 mph N/A   Clear
4:30 PM 84.2 °F - 39.2 °F 20% 29.92 in - South 23.0 mph 36.8 mph N/A   Clear
5:00 PM 82 °F - 38 °F 12% 29.95 in - South 23.0 mph - -  
5:00 PM 82.4 °F - 37.4 °F 20% 29.95 in - South 23.0 mph - N/A   Clear
5:22 PM 80.6 °F - 37.4 °F 21% 29.95 in - South 18.4 mph 29.9 mph N/A   Clear
5:30 PM 80.6 °F - 37.4 °F 21% 29.95 in - South 20.7 mph - N/A   Clear
5:42 PM 78.8 °F - 39.2 °F 24% 29.98 in - South 21.9 mph 34.5 mph N/A   Clear
6:00 PM 80 °F - 39 °F 14% 29.98 in 17 mi South 19.6 mph - -   Smoke
6:00 PM 80.6 °F - 39.2 °F 23% 29.98 in - South 19.6 mph - N/A   Clear
6:30 PM 77.0 °F - 37.4 °F 24% 30.01 in - SSW 20.7 mph - N/A   Clear
7:00 PM 77 °F - 36 °F 13% 30.01 in - South 19.6 mph - -  
7:00 PM 77.0 °F - 35.6 °F 22% 30.01 in - South 19.6 mph - N/A   Clear
7:30 PM 75.2 °F - 33.8 °F 22% 30.04 in - South 18.4 mph - N/A   Clear
8:00 PM 71 °F - 31 °F 13% 30.06 in - SSW 20.7 mph - -  
8:00 PM 71.6 °F - 30.2 °F 22% 30.06 in - SSW 20.7 mph - N/A   Clear
8:30 PM 68.0 °F - 32.0 °F 26% 30.09 in - SSW 17.3 mph - N/A   Clear
9:00 PM 67 °F - 33 °F 18% 30.09 in 19 mi SSW 17.3 mph - -   Partly Cloudy
9:00 PM 68.0 °F - 33.8 °F 28% 30.09 in - SSW 17.3 mph - N/A   Clear
9:30 PM 66.2 °F - 37.4 °F 35% 30.12 in - SSW 15.0 mph - N/A   Clear
10:00 PM 65 °F - 38 °F 25% 30.12 in - SSW 12.7 mph - -  
10:00 PM 64.4 °F - 37.4 °F 37% 30.12 in 6.2 mi SSW 12.7 mph - N/A   Partly Cloudy
10:30 PM 62.6 °F - 39.2 °F 42% 30.12 in 6.2 mi SSW 11.5 mph - N/A   Partly Cloudy
11:00 PM 62 °F - 40 °F 33% 30.12 in - SSW 10.4 mph - -  
11:00 PM 62.6 °F - 41.0 °F 45% 30.12 in 6.2 mi SSW 10.4 mph - N/A   Partly Cloudy
11:30 PM 60.8 °F - 41.0 °F 48% 30.12 in 6.2 mi SSW 8.1 mph - N/A   Partly Cloudy